Flag for Norway Weather past 2 weeks in Tønsberg, Norway

Now
52 °F

Fog.


Feels Like: 46 °F
Forecast: 58 / 74 °F
Wind: 17 mph from Northeast

Location: Oseberg

Current Time: Jul 4, 2015 at 4:24:19 PM

Latest Report: Jul 4, 2015 at 3:50 PM


Visibility: 3 mi

Pressure: 30.12 "Hg

Humidity: 100%

Dew point: 52 °F

Location of TønsbergLocation

Historic Weather in Tønsberg — Graph

°F

Tønsberg temperature yesterday

Maximum temperature yesterday: 57 °F (at 1:50 AM)
Minimum temperature yesterday: 50 °F (at 10:50 PM)
Average temperature yesterday: 53 °F

Past Weeks' High & Low Weather Summary

 TemperatureHumidityPressure
High61 °F (Jul 2, 9:20 AM)100% (Jun 19, 5:20 PM)30.33 "Hg (Jun 19, 5:20 PM)
Low46 °F (Jun 25, 1:50 AM)63% (Jun 21, 11:50 AM)29.74 "Hg (Jun 22, 6:50 AM)
Average52 °F89%29.99 "Hg
* Reported Jun 19 2:20 PM — Jul 4 2:50 PM, Tønsberg, Weather by CustomWeather, © 2015

Note: Actual official high and low records may vary slightly from our data, if they occured in-between our weather recording intervals... More about our weather records

Advertising

Tønsberg weather history for previous 24 hours

 ConditionsComfort  
Time TempWeatherWind HumidityBarometerVisibility
2:50 PM
Sat, Jul 4
52 °FFog.22 mph100%30.12 "Hg4 mi
2:20 PM52 °FFog.18 mph100%30.15 "Hg1 mi
1:20 PM52 °FFog.25 mph100%30.15 "Hg2 mi
12:50 PM52 °FFog.24 mph100%30.15 "Hg4 mi
12:20 PM52 °FFog.22 mph100%30.18 "Hg3 mi
11:50 AM52 °FFog.25 mph100%30.18 "Hg2 mi
10:50 AM50 °FDrizzle. Fog.24 mph100%30.18 "Hg0 mi
10:20 AM50 °FDrizzle. Fog.22 mph100%30.21 "Hg0 mi
9:50 AM50 °FFog.17 mph100%30.24 "Hg0 mi
9:20 AM50 °FFog.22 mph100%30.24 "Hg1 mi
8:50 AM50 °FFog.24 mph100%30.21 "Hg0 mi
8:20 AM50 °FFog.26 mph100%30.21 "Hg0 mi
7:50 AM50 °FFog.29 mph100%30.21 "Hg0 mi
7:20 AM50 °FDrizzle. Fog.26 mph100%30.21 "Hg0 mi
6:50 AM50 °FFog.25 mph100%30.24 "Hg0 mi
5:50 AM50 °FDrizzle. Fog.22 mph100%30.27 "Hg0 mi
4:50 AM50 °FSprinkles. Dense fog.21 mph100%30.27 "Hg0 mi
3:50 AM52 °FSprinkles. Fog.20 mph100%30.30 "Hg0 mi
2:50 AM52 °FFog.16 mph100%30.30 "Hg0 mi
1:50 AM52 °FFog.15 mph100%30.33 "Hg0 mi
12:50 AM52 °FFog.15 mph100%30.33 "Hg0 mi
11:50 PM
Fri, Jul 3
50 °FFog.15 mph100%30.33 "Hg0 mi
10:50 PM50 °FFog.14 mph100%30.33 "Hg0 mi
9:50 PM52 °FFog.13 mph100%30.33 "Hg0 mi
8:50 PM52 °FFog.13 mph100%30.33 "Hg0 mi
7:50 PM52 °FFog.13 mph100%30.33 "Hg0 mi
6:50 PM52 °FFog.16 mph100%30.33 "Hg1 mi
6:20 PM52 °FLow clouds.18 mph100%30.30 "Hg4 mi
5:50 PM52 °FLow clouds.18 mph94%30.30 "Hg4 mi
5:20 PM52 °FLow clouds.20 mph100%30.30 "Hg6 mi
4:50 PM52 °FLow clouds.21 mph100%30.30 "HgN/A
4:20 PM52 °FLow clouds.23 mph94%30.27 "HgN/A
Weather by CustomWeather, © 2015

See weather overviewHow to use our weather pages